Flippin, AR

2:58 PM CDT on August 17, 2017 (GMT -0500)
Marion County Regional

Weather History for KFLP - January, 2005

Change the Weather History Date:

Thursday, January 13, 2005

  Actual Average Record
Temperature  
Mean Temperature 45 °F -  
Max Temperature 57 °F 44 °F 59 °F (2004)
Min Temperature 33 °F 26 °F 5 °F (1997)
Degree Days  
Heating Degree Days 20    
Moisture  
Dew Point 37 °F    
Average Humidity 79    
Maximum Humidity 94    
Minimum Humidity 61    
Precipitation  
Precipitation 0.22 in - - ()
Sea Level Pressure  
Sea Level Pressure 29.84 in    
Wind  
Wind Speed 7 mph (NW)    
Max Wind Speed 17 mph    
Max Gust Speed 30 mph    
Visibility 9 miles    
Events Thunderstorm    
Averages and records for this station are not official NWS values.
T = Trace of Precipitation, MM = Missing Value Source: NWS Daily Summary

Daily Weather History Graph

Daily Weather History Graph

Search for Another Location

Airport or City:

Trip Planner

Search our weather history database for the weather conditions in past years. The results will help you decide how hot, cold, wet, or windy it might be!

Date:

Astronomy

Jan. 13, 2005 Rise Set
Actual Time 7:21 AM CST 5:17 PM CST
Civil Twilight 6:53 AM CST 5:45 PM CST
Nautical Twilight 6:21 AM CST 6:17 PM CST
Astronomical Twilight 5:50 AM CST 6:48 PM CST
Moon 9:59 AM CST (1/13) 9:16 PM CST (1/13)
Length of Visible Light 10h 52m
Length of Day
9h 55m
Waxing Crescent, 15% of the Moon is Illuminated
Jan 13
Waxing Crescent
Jan 17
First Quarter
Jan 25
Full
Feb 2
Last Quarter
Feb 8
New

Hourly Weather History & Observations

Time (CST) Temp. Windchill Dew Point Humidity Pressure Visibility Wind Dir Wind Speed Gust Speed Precip Events Conditions
12:15 AM 57.2 °F - 53.6 °F 88% 29.58 in 7.0 mi Calm Calm - 0.02 in   Overcast
12:35 AM 57.2 °F - 53.6 °F 88% 29.56 in 10.0 mi Calm Calm - 0.02 in   Overcast
12:55 AM 55.4 °F - 53.6 °F 94% 29.57 in 10.0 mi Calm Calm - 0.02 in   Overcast
1:15 AM 55.4 °F - 53.6 °F 94% 29.58 in 10.0 mi Calm Calm - N/A   Scattered Clouds
1:35 AM 55.4 °F - 53.6 °F 94% 29.56 in 9.0 mi Calm Calm - N/A   Scattered Clouds
1:55 AM 55.4 °F - 53.6 °F 94% 29.58 in 10.0 mi Calm Calm - N/A   Mostly Cloudy
2:15 AM 55.4 °F - 53.6 °F 94% 29.58 in 2.0 mi Calm Calm - N/A   Overcast
2:35 AM 55.4 °F - 53.6 °F 94% 29.58 in 10.0 mi Calm Calm - N/A   Overcast
2:55 AM 55.4 °F - 53.6 °F 94% 29.59 in 3.0 mi Calm Calm - 0.01 in   Overcast
3:15 AM 55.4 °F - 53.6 °F 94% 29.57 in 8.0 mi East 5.8 mph - N/A   Overcast
3:35 AM 55.4 °F - 51.8 °F 88% 29.52 in 10.0 mi East 11.5 mph 17.3 mph N/A   Scattered Clouds
3:55 AM 55.4 °F - 51.8 °F 88% 29.56 in 10.0 mi SSW 5.8 mph - N/A   Clear
4:15 AM 55.4 °F - 53.6 °F 94% 29.58 in 10.0 mi SSW 3.5 mph - N/A   Mostly Cloudy
4:35 AM 55.4 °F - 51.8 °F 88% 29.58 in 10.0 mi Calm Calm - N/A   Overcast
4:55 AM 55.4 °F - 51.8 °F 88% 29.61 in 3.0 mi WSW 6.9 mph - 0.02 in Thunderstorm Thunderstorm
5:15 AM 50.0 °F - 46.4 °F 87% 29.62 in 4.0 mi NW 15.0 mph - 0.09 in   Overcast
5:35 AM 46.4 °F 40.7 °F 42.8 °F 87% 29.64 in 3.0 mi NW 12.7 mph - 0.17 in   Mostly Cloudy
5:55 AM 44.6 °F 38.4 °F 39.2 °F 81% 29.64 in 10.0 mi WNW 12.7 mph 17.3 mph 0.17 in   Overcast
6:15 AM 42.8 °F 35.8 °F 37.4 °F 81% 29.66 in 10.0 mi WNW 13.8 mph 19.6 mph N/A   Overcast
6:35 AM 42.8 °F 36.2 °F 37.4 °F 81% 29.70 in 10.0 mi West 12.7 mph 18.4 mph N/A   Overcast
6:55 AM 41.0 °F 34.7 °F 37.4 °F 87% 29.73 in 6.0 mi WNW 10.4 mph 16.1 mph N/A   Overcast
7:15 AM 39.2 °F 30.5 °F 35.6 °F 87% 29.76 in 4.0 mi NW 16.1 mph 24.2 mph N/A   Overcast
7:35 AM 37.4 °F 27.8 °F 33.8 °F 87% 29.79 in 5.0 mi NW 17.3 mph 29.9 mph N/A   Overcast
7:55 AM 35.6 °F 27.5 °F 30.2 °F 81% 29.81 in 4.0 mi NW 11.5 mph 21.9 mph N/A   Overcast
8:15 AM 35.6 °F 25.9 °F 30.2 °F 81% 29.84 in 5.0 mi NW 16.1 mph 23.0 mph N/A   Overcast
8:35 AM 35.6 °F 27.1 °F 30.2 °F 81% 29.87 in 10.0 mi West 12.7 mph 19.6 mph N/A   Overcast
8:55 AM 35.6 °F 26.6 °F 30.2 °F 81% 29.87 in 10.0 mi NW 13.8 mph 26.5 mph N/A   Overcast
9:15 AM 35.6 °F 26.2 °F 28.4 °F 75% 29.89 in 10.0 mi WNW 15.0 mph 19.6 mph N/A   Overcast
9:35 AM 35.6 °F 27.5 °F 28.4 °F 75% 29.90 in 10.0 mi WNW 11.5 mph 19.6 mph N/A   Overcast
9:55 AM 33.8 °F 23.9 °F 28.4 °F 81% 29.92 in 10.0 mi WNW 15.0 mph 23.0 mph N/A   Overcast
10:15 AM 35.6 °F 26.6 °F 28.4 °F 75% 29.93 in 10.0 mi NW 13.8 mph 19.6 mph N/A   Overcast
10:35 AM 33.8 °F 24.3 °F 28.4 °F 81% 29.94 in 10.0 mi WNW 13.8 mph 20.7 mph N/A   Overcast
10:55 AM 35.6 °F 28.0 °F 28.4 °F 75% 29.94 in 10.0 mi NW 10.4 mph 18.4 mph N/A   Overcast
11:15 AM 35.6 °F 29.2 °F 28.4 °F 75% 29.95 in 10.0 mi WNW 8.1 mph 23.0 mph N/A   Overcast
11:35 AM 35.6 °F 27.1 °F 28.4 °F 75% 29.97 in 10.0 mi WNW 12.7 mph 18.4 mph N/A   Overcast
11:55 AM 35.6 °F 26.2 °F 28.4 °F 75% 29.97 in 10.0 mi NW 15.0 mph 20.7 mph N/A   Overcast
12:15 PM 35.6 °F 26.6 °F 28.4 °F 75% 29.96 in 10.0 mi NW 13.8 mph 19.6 mph N/A   Overcast
12:35 PM 37.4 °F 29.8 °F 28.4 °F 70% 29.97 in 10.0 mi NW 11.5 mph 20.7 mph N/A   Overcast
12:55 PM 37.4 °F 28.9 °F 28.4 °F 70% 29.98 in 10.0 mi NW 13.8 mph 18.4 mph N/A   Overcast
1:15 PM 37.4 °F 28.2 °F 28.4 °F 70% 29.98 in 10.0 mi NW 16.1 mph 20.7 mph N/A   Overcast
1:35 PM 37.4 °F 30.8 °F 28.4 °F 70% 30.00 in 10.0 mi NW 9.2 mph 18.4 mph N/A   Mostly Cloudy
1:55 PM 39.2 °F 32.0 °F 30.2 °F 70% 30.02 in 10.0 mi NNW 11.5 mph 18.4 mph N/A   Mostly Cloudy
2:15 PM 39.2 °F 32.0 °F 30.2 °F 70% 30.03 in 10.0 mi NW 11.5 mph 18.4 mph N/A   Scattered Clouds
2:35 PM 41.0 °F 33.5 °F 28.4 °F 61% 30.04 in 10.0 mi NNW 13.8 mph 20.7 mph N/A   Partly Cloudy
2:55 PM 41.0 °F 34.3 °F 28.4 °F 61% 30.05 in 10.0 mi NW 11.5 mph 19.6 mph N/A   Partly Cloudy
3:15 PM 41.0 °F 34.3 °F 28.4 °F 61% 30.06 in 10.0 mi NNW 11.5 mph 20.7 mph N/A   Partly Cloudy
3:35 PM 41.0 °F 33.5 °F 28.4 °F 61% 30.08 in 10.0 mi NW 13.8 mph 25.3 mph N/A   Partly Cloudy
3:55 PM 39.2 °F 30.8 °F 28.4 °F 65% 30.09 in 10.0 mi NW 15.0 mph 24.2 mph N/A   Mostly Cloudy
4:15 PM 39.2 °F 30.8 °F 28.4 °F 65% 30.12 in 10.0 mi NNW 15.0 mph 23.0 mph N/A   Overcast
4:35 PM 37.4 °F 30.3 °F 26.6 °F 65% 30.13 in 10.0 mi NW 10.4 mph 21.9 mph N/A   Mostly Cloudy
4:55 PM 37.4 °F 31.4 °F 26.6 °F 65% 30.15 in 10.0 mi NW 8.1 mph - N/A   Mostly Cloudy
5:15 PM 37.4 °F 32.1 °F 26.6 °F 65% 30.16 in 10.0 mi NNW 6.9 mph - N/A   Partly Cloudy
5:35 PM 35.6 °F 30.7 °F 26.6 °F 70% 30.19 in 10.0 mi NNW 5.8 mph - N/A   Clear
5:55 PM 35.6 °F 28.6 °F 26.6 °F 70% 30.18 in 10.0 mi NNW 9.2 mph - N/A   Clear
6:15 PM 35.6 °F 29.9 °F 26.6 °F 70% 30.20 in 10.0 mi NNW 6.9 mph - N/A   Clear
6:35 PM 35.6 °F 29.9 °F 26.6 °F 70% 30.21 in 10.0 mi North 6.9 mph - N/A   Clear
6:55 PM 35.6 °F 28.6 °F 26.6 °F 70% 30.24 in 10.0 mi North 9.2 mph - N/A   Clear
7:15 PM 33.8 °F 27.7 °F 26.6 °F 75% 30.24 in 10.0 mi NNW 6.9 mph - N/A   Clear
7:35 PM 33.8 °F 25.8 °F 24.8 °F 70% 30.24 in 10.0 mi NNW 10.4 mph - N/A   Clear
7:55 PM 33.8 °F 27.0 °F 24.8 °F 70% 30.25 in 10.0 mi NNW 8.1 mph - N/A   Clear
8:15 PM 33.8 °F 28.6 °F 24.8 °F 70% 30.27 in 10.0 mi NNW 5.8 mph - N/A   Clear
8:35 PM 32.0 °F 27.5 °F 24.8 °F 75% 30.28 in 10.0 mi NW 4.6 mph - N/A   Clear
8:55 PM 32.0 °F 27.5 °F 24.8 °F 75% 30.28 in 10.0 mi NNW 4.6 mph - N/A   Clear
9:15 PM 30.2 °F 24.3 °F 24.8 °F 80% 30.29 in 10.0 mi NW 5.8 mph - N/A   Clear
9:35 PM 30.2 °F 21.9 °F 24.8 °F 80% 30.30 in 10.0 mi NNW 9.2 mph - N/A   Clear
9:55 PM 30.2 °F 25.4 °F 24.8 °F 80% 30.31 in 10.0 mi NW 4.6 mph - N/A   Clear
10:35 PM 30.2 °F 23.4 °F 23.0 °F 75% 30.33 in 10.0 mi NNW 6.9 mph - N/A   Clear
10:55 PM 30.2 °F 25.4 °F 23.0 °F 75% 30.34 in 10.0 mi North 4.6 mph - N/A   Clear
11:15 PM 30.2 °F 21.9 °F 21.2 °F 69% 30.35 in 10.0 mi NNW 9.2 mph - N/A   Clear
11:35 PM 30.2 °F 23.4 °F 21.2 °F 69% 30.37 in 10.0 mi NNW 6.9 mph - N/A   Clear
11:55 PM 28.4 °F 21.2 °F 21.2 °F 74% 30.38 in 10.0 mi NW 6.9 mph - N/A   Scattered Clouds